星链-36180(STARLINK-36180)

导读 | 豆包AI

STARLINK-36180是美国SpaceX公司星链星座的成员卫星,于2025年12月15日发射入轨。星链项目旨在构建全球低轨宽带互联网星座,为基础设施匮乏区域提供高速低延迟网络服务。 该卫星部署在约550公里近地轨道,依托星座规模化组网优势,可配合终端提供百兆级下载速度与20-40毫秒低延迟,支撑远程办公、在线娱乐等多元应用,服务全球超125个国家和地区用户。

基本信息
目录编号:
67114
目录名称:
STARLINK-36180
国际标识:
2025-299N
轨道中心:
EARTH
卫星名称:
星链-36180
卫星全名:
星链-36180(STARLINK-36180)
卫星状态:
在轨 (已飞行89 天)
发射日期:
2025-12-15 UTC
国别 :
美国 (US)
星等 :
--
轨道信息
数据来源 国际轨道数据
星历时间: 2026-03-13T14:45:53+0800
20小时前
查看轨道信息
半长轴: 6858.614km
偏心率: 0.0001094
轨道倾角: 42.998°
近地点辐角 188.065°
升交点赤经 148.872°
平近点角 172.018°
近地点: 479.726km
远地点: 481.228km
周期: 94.214分钟
每日圈数: 15.284397
详细信息
固有亮度:
5
最大亮度:
2.5
卫星平台:
Starlink V1.0
覆盖范围:
全球
运营商:
太空探索技术公司
运营商所在国:
美国
制造商(研发单位):
太空探索技术公司
制造商所在国:
美国
使用方式:
暂无
卫星简介
Starlink 计划是 SpaceX 推出的全球卫星互联网项目,通过发射低轨道卫星,为全球尤其是偏远地区提供高速、低延迟的互联网服务。自 2019 年起,Starlink 已部署数千颗卫星,旨在缩小全球数字鸿沟,推动互联网普及。该项目还为军事、航空等行业提供通信支持,带来广泛经济效益。
2D轨道图
3D轨道图
轨道高度分析图
轨道倾角分析图
轨道综合分析图
查看轨道综合分析图